Time,TemperatureF,DewpointF,PressureIn,WindDirection,WindDirectionDegrees,WindSpeedMPH,WindSpeedGustMPH,Humidity,HourlyPrecipIn,Conditions,Clouds,dailyrainin,SolarRadiationWatts/m^2,SoftwareType,DateUTC
2013-09-22 00:03:00,47.9,43.9,29.94,North,351,0.0,0.0,86,0.00,CLR,,0.00,0.0,WeatherDisplay:10.37,2013-09-22 05:03:00,
2013-09-22 00:08:00,47.9,43.9,29.94,North,351,0.0,0.0,86,0.00,CLR,,0.00,0.0,WeatherDisplay:10.37,2013-09-22 05:08:00,
2013-09-22 00:13:00,47.6,43.3,29.94,North,351,1.1,1.1,85,0.00,CLR,,0.00,0.0,WeatherDisplay:10.37,2013-09-22 05:13:00,
2013-09-22 00:18:00,47.5,43.5,29.94,North,351,0.0,0.2,86,0.00,CLR,,0.00,0.0,WeatherDisplay:10.37,2013-09-22 05:18:00,
2013-09-22 00:23:00,47.5,43.5,29.94,North,351,1.1,0.0,86,0.00,CLR,,0.00,0.0,WeatherDisplay:10.37,2013-09-22 05:23:00,
2013-09-22 00:28:00,47.6,43.9,29.94,North,351,1.0,1.0,87,0.00,CLR,,0.00,0.0,WeatherDisplay:10.37,2013-09-22 05:28:00,
2013-09-22 00:33:00,48.1,44.1,29.94,North,351,1.1,1.1,86,0.00,CLR,,0.00,0.0,WeatherDisplay:10.37,2013-09-22 05:33:00,
2013-09-22 00:38:00,48.6,44.6,29.94,North,351,2.3,2.3,86,0.00,CLR,,0.00,0.0,WeatherDisplay:10.37,2013-09-22 05:38:00,
2013-09-22 00:43:00,48.9,44.6,29.94,NNW,348,3.5,3.5,85,0.00,CLR,,0.00,0.0,WeatherDisplay:10.37,2013-09-22 05:43:00,
2013-09-22 00:48:00,49.0,44.4,29.94,NNW,340,3.5,3.5,84,0.00,CLR,,0.00,0.0,WeatherDisplay:10.37,2013-09-22 05:48:00,
2013-09-22 00:53:00,49.2,44.6,29.94,NNW,331,3.5,3.5,84,0.00,CLR,,0.00,0.0,WeatherDisplay:10.37,2013-09-22 05:53:00,
2013-09-22 00:58:00,49.2,44.6,29.95,NNW,331,3.5,3.5,84,0.00,CLR,,0.00,0.0,WeatherDisplay:10.37,2013-09-22 05:58:00,
2013-09-22 01:03:00,49.1,44.2,29.95,NNW,331,2.3,2.3,83,0.00,CLR,,0.00,0.0,WeatherDisplay:10.37,2013-09-22 06:03:00,
2013-09-22 01:08:00,49.1,44.2,29.95,NW,325,4.0,4.0,83,0.00,CLR,,0.00,0.0,WeatherDisplay:10.37,2013-09-22 06:08:00,
2013-09-22 01:13:00,49.0,44.4,29.95,NW,325,3.5,3.5,84,0.00,CLR,,0.00,0.0,WeatherDisplay:10.37,2013-09-22 06:13:00,
2013-09-22 01:18:00,49.0,44.4,29.95,NW,325,4.0,4.0,84,0.00,CLR,,0.00,0.0,WeatherDisplay:10.37,2013-09-22 06:18:00,
2013-09-22 01:23:00,48.9,44.3,29.95,NW,325,3.5,3.5,84,0.00,CLR,,0.00,0.0,WeatherDisplay:10.37,2013-09-22 06:23:00,
2013-09-22 01:28:00,48.9,44.3,29.95,NW,325,3.5,3.5,84,0.00,CLR,,0.00,0.0,WeatherDisplay:10.37,2013-09-22 06:28:00,
2013-09-22 01:33:00,48.8,44.2,29.95,NW,325,3.5,3.5,84,0.00,CLR,,0.00,0.0,WeatherDisplay:10.37,2013-09-22 06:33:00,
2013-09-22 01:38:00,48.7,44.1,29.95,NW,325,4.0,4.0,84,0.00,CLR,,0.00,0.0,WeatherDisplay:10.37,2013-09-22 06:38:00,
2013-09-22 01:43:00,48.4,43.8,29.95,NW,325,2.3,2.3,84,0.00,CLR,,0.00,0.0,WeatherDisplay:10.37,2013-09-22 06:43:00,
2013-09-22 01:48:00,48.2,43.9,29.95,NW,324,3.0,3.0,85,0.00,CLR,,0.00,0.0,WeatherDisplay:10.37,2013-09-22 06:48:00,
2013-09-22 01:53:00,48.2,43.9,29.95,NW,324,3.5,3.5,85,0.00,CLR,,0.00,0.0,WeatherDisplay:10.37,2013-09-22 06:53:00,
2013-09-22 01:58:00,48.2,43.9,29.95,NW,324,3.5,3.5,85,0.00,CLR,,0.00,0.0,WeatherDisplay:10.37,2013-09-22 06:58:00,
2013-09-22 02:03:00,48.1,43.8,29.95,NW,324,2.3,2.3,85,0.00,CLR,,0.00,0.0,WeatherDisplay:10.37,2013-09-22 07:03:00,
2013-09-22 02:08:00,48.1,43.8,29.95,NW,324,2.3,2.3,85,0.00,CLR,,0.00,0.0,WeatherDisplay:10.37,2013-09-22 07:08:00,
2013-09-22 02:13:00,48.0,43.7,29.95,NW,324,1.1,1.1,85,0.00,CLR,,0.00,0.0,WeatherDisplay:10.37,2013-09-22 07:13:00,
2013-09-22 02:18:00,48.0,43.7,29.95,NW,324,2.3,2.3,85,0.00,CLR,,0.00,0.0,WeatherDisplay:10.37,2013-09-22 07:18:00,
2013-09-22 02:23:00,48.0,43.7,29.95,NW,324,3.5,3.5,85,0.00,CLR,,0.00,0.0,WeatherDisplay:10.37,2013-09-22 07:23:00,
2013-09-22 02:28:00,48.1,43.8,29.95,NW,324,3.5,3.5,85,0.00,CLR,,0.00,0.0,WeatherDisplay:10.37,2013-09-22 07:28:00,
2013-09-22 02:33:00,48.1,43.8,29.95,NW,324,3.5,3.5,85,0.00,CLR,,0.00,0.0,WeatherDisplay:10.37,2013-09-22 07:33:00,
2013-09-22 02:38:00,48.0,43.4,29.95,NW,323,3.5,3.5,84,0.00,CLR,,0.00,0.0,WeatherDisplay:10.37,2013-09-22 07:38:00,
2013-09-22 02:43:00,47.7,43.4,29.95,NNW,327,4.0,4.0,85,0.00,CLR,,0.00,0.0,WeatherDisplay:10.37,2013-09-22 07:43:00,
2013-09-22 02:48:00,47.4,43.4,29.95,NNW,327,3.5,3.5,86,0.00,CLR,,0.00,0.0,WeatherDisplay:10.37,2013-09-22 07:48:00,
2013-09-22 02:53:00,47.2,43.2,29.96,NNW,327,3.5,3.5,86,0.00,CLR,,0.00,0.0,WeatherDisplay:10.37,2013-09-22 07:53:00,
2013-09-22 02:58:00,47.0,43.3,29.96,NNW,327,3.5,3.5,87,0.00,CLR,,0.00,0.0,WeatherDisplay:10.37,2013-09-22 07:58:00,
2013-09-22 03:03:00,47.1,43.4,29.96,NNW,327,3.5,3.5,87,0.00,CLR,,0.00,0.0,WeatherDisplay:10.37,2013-09-22 08:03:00,
2013-09-22 03:08:00,47.2,43.5,29.96,NNW,327,4.0,4.0,87,0.00,CLR,,0.00,0.0,WeatherDisplay:10.37,2013-09-22 08:08:00,
2013-09-22 03:13:00,47.2,43.5,29.96,NNW,327,4.0,4.0,87,0.00,CLR,,0.00,0.0,WeatherDisplay:10.37,2013-09-22 08:13:00,
2013-09-22 03:19:00,47.0,43.3,29.96,NNW,327,4.0,4.0,87,0.00,CLR,,0.00,0.0,WeatherDisplay:10.37,2013-09-22 08:19:00,
2013-09-22 03:23:00,46.9,43.2,29.96,NNW,327,3.5,3.5,87,0.00,CLR,,0.00,0.0,WeatherDisplay:10.37,2013-09-22 08:23:00,
2013-09-22 03:29:00,47.1,43.4,29.96,NNW,327,3.5,3.5,87,0.00,CLR,,0.00,0.0,WeatherDisplay:10.37,2013-09-22 08:29:00,
2013-09-22 03:34:00,47.1,43.4,29.96,NNW,329,4.6,4.6,87,0.00,CLR,,0.00,0.0,WeatherDisplay:10.37,2013-09-22 08:34:00,
2013-09-22 03:39:00,47.2,43.5,29.96,NW,325,3.5,3.5,87,0.00,CLR,,0.00,0.0,WeatherDisplay:10.37,2013-09-22 08:39:00,
2013-09-22 03:44:00,47.3,43.6,29.96,NW,326,5.0,5.0,87,0.00,CLR,,0.00,0.0,WeatherDisplay:10.37,2013-09-22 08:44:00,
2013-09-22 03:49:00,47.2,43.5,29.96,NNW,330,5.8,5.8,87,0.00,CLR,,0.00,0.0,WeatherDisplay:10.37,2013-09-22 08:49:00,
2013-09-22 03:54:00,47.2,43.5,29.96,NNW,331,4.6,4.6,87,0.00,CLR,,0.00,0.0,WeatherDisplay:10.37,2013-09-22 08:54:00,
2013-09-22 03:59:00,47.1,43.4,29.96,NNW,333,4.6,4.6,87,0.00,CLR,,0.00,0.0,WeatherDisplay:10.37,2013-09-22 08:59:00,
2013-09-22 04:04:00,47.0,43.3,29.96,NNW,335,4.6,4.6,87,0.00,CLR,,0.00,0.0,WeatherDisplay:10.37,2013-09-22 09:04:00,
2013-09-22 04:09:00,46.7,43.0,29.96,NNW,334,4.6,4.6,87,0.00,CLR,,0.00,0.0,WeatherDisplay:10.37,2013-09-22 09:09:00,
2013-09-22 04:14:00,46.6,43.2,29.97,NNW,328,4.6,4.6,88,0.00,CLR,,0.00,0.0,WeatherDisplay:10.37,2013-09-22 09:14:00,
2013-09-22 04:19:00,46.6,43.2,29.97,NNW,332,4.6,4.6,88,0.00,CLR,,0.00,0.0,WeatherDisplay:10.37,2013-09-22 09:19:00,
2013-09-22 04:24:00,46.6,43.2,29.97,NNW,327,4.6,4.6,88,0.00,CLR,,0.00,0.0,WeatherDisplay:10.37,2013-09-22 09:24:00,
2013-09-22 04:29:00,46.5,43.1,29.97,NNW,331,3.5,3.5,88,0.00,CLR,,0.00,0.0,WeatherDisplay:10.37,2013-09-22 09:29:00,
2013-09-22 04:34:00,46.3,42.9,29.97,NNW,331,4.0,4.0,88,0.00,CLR,,0.00,0.0,WeatherDisplay:10.37,2013-09-22 09:34:00,
2013-09-22 04:39:00,46.0,42.6,29.97,NNW,331,3.5,3.5,88,0.00,CLR,,0.00,0.0,WeatherDisplay:10.37,2013-09-22 09:39:00,
2013-09-22 04:44:00,45.8,42.7,29.97,NNW,334,4.6,4.6,89,0.00,CLR,,0.00,0.0,WeatherDisplay:10.37,2013-09-22 09:44:00,
2013-09-22 04:49:00,45.5,42.4,29.97,NNW,334,3.5,3.5,89,0.00,CLR,,0.00,0.0,WeatherDisplay:10.37,2013-09-22 09:49:00,
2013-09-22 04:54:00,45.5,42.7,29.97,NNW,334,5.0,5.0,90,0.00,CLR,,0.00,0.0,WeatherDisplay:10.37,2013-09-22 09:54:00,
2013-09-22 04:59:00,45.6,42.8,29.97,NNW,334,4.6,4.6,90,0.00,CLR,,0.00,0.0,WeatherDisplay:10.37,2013-09-22 09:59:00,
2013-09-22 05:04:00,45.8,43.0,29.97,NNW,330,5.0,5.0,90,0.00,CLR,,0.00,0.0,WeatherDisplay:10.37,2013-09-22 10:04:00,
2013-09-22 05:09:00,46.0,42.9,29.97,NNW,336,4.6,4.6,89,0.00,CLR,,0.00,0.0,WeatherDisplay:10.37,2013-09-22 10:09:00,
2013-09-22 05:14:00,46.1,43.0,29.97,NNW,334,4.6,4.6,89,0.00,CLR,,0.00,0.0,WeatherDisplay:10.37,2013-09-22 10:14:00,
2013-09-22 05:19:00,46.0,42.9,29.97,NNW,336,3.5,3.5,89,0.00,CLR,,0.00,0.0,WeatherDisplay:10.37,2013-09-22 10:19:00,
2013-09-22 05:24:00,45.8,42.7,29.97,NNW,340,3.5,3.5,89,0.00,CLR,,0.00,0.0,WeatherDisplay:10.37,2013-09-22 10:24:00,
2013-09-22 05:29:00,45.6,42.5,29.98,NNW,340,3.5,3.5,89,0.00,CLR,,0.00,0.0,WeatherDisplay:10.37,2013-09-22 10:29:00,
2013-09-22 05:34:00,45.6,42.5,29.98,NNW,340,4.0,4.0,89,0.00,CLR,,0.00,0.0,WeatherDisplay:10.37,2013-09-22 10:34:00,
2013-09-22 05:39:00,45.5,42.7,29.98,NNW,340,3.5,3.5,90,0.00,CLR,,0.00,0.0,WeatherDisplay:10.37,2013-09-22 10:39:00,
2013-09-22 05:44:00,45.7,42.9,29.98,NNW,338,4.6,4.6,90,0.00,CLR,,0.00,0.0,WeatherDisplay:10.37,2013-09-22 10:44:00,
2013-09-22 05:49:00,46.0,43.2,29.98,NNW,338,3.5,3.5,90,0.00,CLR,,0.00,0.0,WeatherDisplay:10.37,2013-09-22 10:49:00,
2013-09-22 05:58:00,46.1,43.0,29.98,NNW,338,4.0,4.0,89,0.00,CLR,,0.00,0.0,WeatherDisplay:10.37,2013-09-22 10:58:00,
2013-09-22 06:03:00,46.3,43.5,29.98,NNW,338,3.5,3.5,90,0.00,CLR,,0.00,0.0,WeatherDisplay:10.37,2013-09-22 11:03:00,
2013-09-22 06:08:00,46.7,43.9,29.98,NNW,338,3.5,3.5,90,0.00,CLR,,0.00,0.0,WeatherDisplay:10.37,2013-09-22 11:08:00,
2013-09-22 06:13:00,47.3,44.2,29.98,NNW,331,4.6,4.6,89,0.00,CLR,,0.00,0.0,WeatherDisplay:10.37,2013-09-22 11:13:00,
2013-09-22 06:18:00,47.8,44.7,29.98,NNW,329,5.8,5.8,89,0.00,CLR,,0.00,0.0,WeatherDisplay:10.37,2013-09-22 11:18:00,
2013-09-22 06:23:00,48.0,44.6,29.99,NNW,338,3.5,3.5,88,0.00,CLR,,0.00,0.0,WeatherDisplay:10.37,2013-09-22 11:23:00,
2013-09-22 06:28:00,47.8,44.1,29.99,NNW,338,3.5,3.5,87,0.00,CLR,,0.00,0.0,WeatherDisplay:10.37,2013-09-22 11:28:00,
2013-09-22 06:33:00,47.4,44.0,29.99,NNW,338,3.5,3.5,88,0.00,BKN,,0.00,0.0,WeatherDisplay:10.37,2013-09-22 11:33:00,
2013-09-22 06:38:00,47.0,43.9,29.99,NNW,338,3.5,3.5,89,0.00,BKN,,0.00,0.0,WeatherDisplay:10.37,2013-09-22 11:38:00,
2013-09-22 06:43:00,46.9,43.8,29.99,NNW,338,3.5,3.5,89,0.00,BKN,,0.00,0.0,WeatherDisplay:10.37,2013-09-22 11:43:00,
2013-09-22 06:48:00,46.7,43.6,30.00,NE,36,5.0,5.0,89,0.00,BKN,,0.00,5.0,WeatherDisplay:10.37,2013-09-22 11:48:00,
2013-09-22 06:53:00,46.3,43.5,30.00,NE,37,3.5,3.5,90,0.00,BKN,,0.00,7.0,WeatherDisplay:10.37,2013-09-22 11:53:00,
2013-09-22 06:58:00,45.9,43.1,30.00,NE,39,3.5,3.5,90,0.00,BKN,,0.00,12.0,WeatherDisplay:10.37,2013-09-22 11:58:00,
2013-09-22 07:11:00,46.9,45.0,30.00,NNE,13,3.5,4.0,93,0.00,BKN,,0.00,33.0,WeatherDisplay:10.37,2013-09-22 12:11:00,
2013-09-22 07:16:00,47.6,45.7,30.00,North,360,3.5,3.5,93,0.00,BKN,,0.00,62.0,WeatherDisplay:10.37,2013-09-22 12:16:00,
2013-09-22 07:21:00,48.4,46.5,30.00,North,360,3.5,3.5,93,0.00,BKN,,0.00,93.0,WeatherDisplay:10.37,2013-09-22 12:21:00,
2013-09-22 07:26:00,49.1,47.2,30.01,North,360,3.5,3.5,93,0.00,BKN,,0.00,114.0,WeatherDisplay:10.37,2013-09-22 12:26:00,
2013-09-22 07:31:00,49.9,47.7,30.00,North,351,3.5,3.5,92,0.00,OVC,,0.00,109.0,WeatherDisplay:10.37,2013-09-22 12:31:00,
2013-09-22 07:36:00,50.5,48.0,30.00,North,355,3.5,3.5,91,0.00,OVC,,0.00,109.0,WeatherDisplay:10.37,2013-09-22 12:36:00,
2013-09-22 07:41:00,51.1,48.3,30.00,North,355,3.5,3.5,90,0.00,OVC,,0.00,120.0,WeatherDisplay:10.37,2013-09-22 12:41:00,
2013-09-22 07:46:00,51.4,48.3,30.01,North,360,4.6,4.6,89,0.00,OVC,,0.00,47.0,WeatherDisplay:10.37,2013-09-22 12:46:00,
2013-09-22 07:51:00,51.5,47.8,30.01,North,360,3.5,3.5,87,0.00,OVC,,0.00,44.0,WeatherDisplay:10.37,2013-09-22 12:51:00,
2013-09-22 07:56:00,51.5,48.1,30.01,North,360,3.5,3.5,88,0.00,OVC,,0.00,169.0,WeatherDisplay:10.37,2013-09-22 12:56:00,
2013-09-22 08:01:00,52.0,48.6,30.01,North,360,3.5,3.5,88,0.00,OVC,,0.00,200.0,WeatherDisplay:10.37,2013-09-22 13:01:00,
2013-09-22 08:06:00,52.9,49.4,30.01,North,5,3.5,3.5,88,0.00,OVC,,0.00,230.0,WeatherDisplay:10.37,2013-09-22 13:06:00,
2013-09-22 08:11:00,53.7,49.3,30.02,NNE,25,4.0,4.0,85,0.00,OVC,,0.00,230.0,WeatherDisplay:10.37,2013-09-22 13:11:00,
2013-09-22 08:16:00,54.0,49.3,30.02,NE,42,3.5,3.5,84,0.00,SCT,,0.00,167.0,WeatherDisplay:10.37,2013-09-22 13:16:00,
2013-09-22 08:21:00,54.2,49.8,30.02,NE,42,1.1,1.1,85,0.00,SCT,,0.00,295.0,WeatherDisplay:10.37,2013-09-22 13:21:00,
2013-09-22 08:26:00,54.6,49.5,30.02,NE,42,0.0,0.0,83,0.00,SCT,,0.00,325.0,WeatherDisplay:10.37,2013-09-22 13:26:00,
2013-09-22 08:31:00,55.1,49.4,30.02,NE,42,2.3,2.3,81,0.00,SCT,,0.00,304.0,WeatherDisplay:10.37,2013-09-22 13:31:00,
2013-09-22 08:36:00,56.0,50.3,30.02,NE,38,3.5,3.5,81,0.00,SCT,,0.00,311.0,WeatherDisplay:10.37,2013-09-22 13:36:00,
2013-09-22 08:41:00,56.5,50.4,30.02,NE,38,4.6,4.6,80,0.00,SCT,,0.00,323.0,WeatherDisplay:10.37,2013-09-22 13:41:00,
2013-09-22 08:46:00,57.3,51.2,30.02,NNE,31,4.6,4.6,80,0.00,CLR,,0.00,338.0,WeatherDisplay:10.37,2013-09-22 13:46:00,
2013-09-22 08:51:00,57.9,51.1,30.03,NE,50,4.6,4.6,78,0.00,CLR,,0.00,330.0,WeatherDisplay:10.37,2013-09-22 13:51:00,
2013-09-22 08:56:00,58.3,50.8,30.02,East,93,3.5,3.5,76,0.00,CLR,,0.00,373.0,WeatherDisplay:10.37,2013-09-22 13:56:00,
2013-09-22 09:01:00,58.6,51.1,30.03,ENE,78,5.8,5.8,76,0.00,CLR,,0.00,383.0,WeatherDisplay:10.37,2013-09-22 14:01:00,
2013-09-22 09:06:00,59.0,51.4,30.03,ESE,111,4.0,4.0,76,0.00,CLR,,0.00,401.0,WeatherDisplay:10.37,2013-09-22 14:06:00,
2013-09-22 09:11:00,59.5,51.2,30.03,ESE,111,3.5,3.5,74,0.00,CLR,,0.00,417.0,WeatherDisplay:10.37,2013-09-22 14:11:00,
2013-09-22 09:16:00,60.0,49.8,30.03,ESE,117,6.9,6.9,69,0.00,CLR,,0.00,431.0,WeatherDisplay:10.37,2013-09-22 14:16:00,
2013-09-22 09:21:00,60.2,49.6,30.03,SE,131,6.9,6.9,68,0.00,CLR,,0.00,445.0,WeatherDisplay:10.37,2013-09-22 14:21:00,
2013-09-22 09:26:00,60.6,50.4,30.03,ESE,103,6.9,6.9,69,0.00,CLR,,0.00,454.0,WeatherDisplay:10.37,2013-09-22 14:26:00,
2013-09-22 09:31:00,61.0,50.4,30.04,East,94,7.0,7.0,68,0.00,SCT,,0.00,473.0,WeatherDisplay:10.37,2013-09-22 14:31:00,
2013-09-22 09:36:00,61.3,49.8,30.04,ESE,109,6.9,6.9,66,0.00,SCT,,0.00,489.0,WeatherDisplay:10.37,2013-09-22 14:36:00,
2013-09-22 09:41:00,61.5,50.0,30.04,East,82,4.6,4.6,66,0.00,SCT,,0.00,520.0,WeatherDisplay:10.37,2013-09-22 14:41:00,
2013-09-22 09:46:00,61.8,50.3,30.04,ESE,121,3.5,3.5,66,0.00,CLR,,0.00,589.0,WeatherDisplay:10.37,2013-09-22 14:46:00,
2013-09-22 09:51:00,62.3,50.8,30.04,ESE,114,5.8,5.8,66,0.00,CLR,,0.00,645.0,WeatherDisplay:10.37,2013-09-22 14:51:00,
2013-09-22 09:56:00,62.6,51.9,30.04,ESE,115,3.5,3.5,68,0.00,CLR,,0.00,705.0,WeatherDisplay:10.37,2013-09-22 14:56:00,
2013-09-22 10:01:00,62.9,51.0,30.04,North,355,3.5,3.5,65,0.00,CLR,,0.00,722.0,WeatherDisplay:10.37,2013-09-22 15:01:00,
2013-09-22 10:06:00,63.0,50.6,30.04,NE,49,5.8,5.8,64,0.00,CLR,,0.00,635.0,WeatherDisplay:10.37,2013-09-22 15:06:00,
2013-09-22 10:11:00,63.6,50.8,30.04,East,91,6.9,6.9,63,0.00,CLR,,0.00,661.0,WeatherDisplay:10.37,2013-09-22 15:11:00,
2013-09-22 10:16:00,63.3,51.3,30.04,East,87,2.3,2.3,65,0.00,CLR,,0.00,193.0,WeatherDisplay:10.37,2013-09-22 15:16:00,
2013-09-22 10:21:00,63.1,51.6,30.04,East,87,1.0,1.0,66,0.00,CLR,,0.00,744.0,WeatherDisplay:10.37,2013-09-22 15:21:00,
2013-09-22 10:26:00,63.3,51.3,30.04,SSE,159,4.0,4.1,65,0.00,CLR,,0.00,733.0,WeatherDisplay:10.37,2013-09-22 15:26:00,
2013-09-22 10:31:00,63.5,50.2,30.04,SSE,148,3.5,3.5,62,0.00,CLR,,0.00,661.0,WeatherDisplay:10.37,2013-09-22 15:31:00,
2013-09-22 10:36:00,63.2,50.4,30.04,NE,47,3.5,3.5,63,0.00,CLR,,0.00,225.0,WeatherDisplay:10.37,2013-09-22 15:36:00,
2013-09-22 10:41:00,62.9,49.7,30.04,NE,49,4.6,4.6,62,0.00,CLR,,0.00,258.0,WeatherDisplay:10.37,2013-09-22 15:41:00,
2013-09-22 10:46:00,62.5,50.2,30.04,NNE,19,2.3,2.3,64,0.00,SCT,,0.00,223.0,WeatherDisplay:10.37,2013-09-22 15:46:00,
2013-09-22 10:51:00,62.1,50.2,30.04,NNW,329,3.5,3.5,65,0.00,SCT,,0.00,190.0,WeatherDisplay:10.37,2013-09-22 15:51:00,
2013-09-22 10:56:00,61.9,50.4,30.04,NNW,329,2.3,2.3,66,0.00,SCT,,0.00,216.0,WeatherDisplay:10.37,2013-09-22 15:56:00,
2013-09-22 11:01:00,62.2,50.7,30.04,ENE,67,9.0,9.0,66,0.00,BKN,,0.00,793.0,WeatherDisplay:10.37,2013-09-22 16:01:00,
2013-09-22 11:07:00,63.1,50.3,30.04,NE,54,4.6,4.6,63,0.00,BKN,,0.00,193.0,WeatherDisplay:10.37,2013-09-22 16:07:00,
2013-09-22 11:12:00,63.1,50.7,30.04,ENE,63,3.5,3.5,64,0.00,BKN,,0.00,807.0,WeatherDisplay:10.37,2013-09-22 16:12:00,
2013-09-22 11:17:00,63.6,49.9,30.04,ENE,69,3.5,3.5,61,0.00,BKN,,0.00,174.0,WeatherDisplay:10.37,2013-09-22 16:17:00,
2013-09-22 11:22:00,63.4,49.7,30.04,ENE,69,1.1,0.0,61,0.00,BKN,,0.00,211.0,WeatherDisplay:10.37,2013-09-22 16:22:00,
2013-09-22 11:27:00,63.1,49.4,30.04,ENE,71,2.3,2.3,61,0.00,BKN,,0.00,225.0,WeatherDisplay:10.37,2013-09-22 16:27:00,
2013-09-22 11:32:00,63.0,49.3,30.04,ENE,72,2.3,2.3,61,0.00,BKN,,0.00,230.0,WeatherDisplay:10.37,2013-09-22 16:32:00,
2013-09-22 11:37:00,63.1,49.4,30.04,ENE,72,2.0,2.0,61,0.00,BKN,,0.00,211.0,WeatherDisplay:10.37,2013-09-22 16:37:00,
2013-09-22 11:42:00,63.3,49.2,30.04,ENE,71,4.6,4.6,60,0.00,BKN,,0.00,179.0,WeatherDisplay:10.37,2013-09-22 16:42:00,
2013-09-22 11:47:00,63.4,50.1,30.04,North,11,4.6,4.6,62,0.00,OVC,,0.00,482.0,WeatherDisplay:10.37,2013-09-22 16:47:00,
2013-09-22 11:52:00,63.6,49.9,30.03,NE,49,1.1,1.1,61,0.00,OVC,,0.00,893.0,WeatherDisplay:10.37,2013-09-22 16:52:00,
2013-09-22 11:57:00,64.1,49.5,30.03,South,177,3.5,3.5,59,0.00,OVC,,0.00,350.0,WeatherDisplay:10.37,2013-09-22 16:57:00,
2013-09-22 12:02:00,64.7,50.9,30.03,NE,50,5.0,5.0,61,0.00,OVC,,0.00,854.0,WeatherDisplay:10.37,2013-09-22 17:02:00,
2013-09-22 12:07:00,65.1,49.5,30.03,North,360,4.6,4.6,57,0.00,OVC,,0.00,888.0,WeatherDisplay:10.37,2013-09-22 17:07:00,
2013-09-22 12:12:00,65.2,49.6,30.03,NNW,340,3.5,3.5,57,0.00,OVC,,0.00,162.0,WeatherDisplay:10.37,2013-09-22 17:12:00,
2013-09-22 12:17:00,64.7,48.2,30.03,NNE,22,6.9,6.9,55,0.00,OVC,,0.00,211.0,WeatherDisplay:10.37,2013-09-22 17:17:00,
2013-09-22 12:23:00,64.4,49.3,30.03,NNE,32,4.6,4.6,58,0.00,OVC,,0.00,875.0,WeatherDisplay:10.37,2013-09-22 17:23:00,
2013-09-22 12:28:00,65.1,49.5,30.03,NE,44,3.5,3.5,57,0.00,OVC,,0.00,860.0,WeatherDisplay:10.37,2013-09-22 17:28:00,
2013-09-22 12:32:00,66.1,48.0,30.02,ENE,70,3.5,3.5,52,0.00,BKN,,0.00,905.0,WeatherDisplay:10.37,2013-09-22 17:32:00,
2013-09-22 12:38:00,66.8,49.1,30.02,NNE,13,8.1,8.1,53,0.00,BKN,,0.00,874.0,WeatherDisplay:10.37,2013-09-22 17:38:00,
2013-09-22 12:43:00,67.4,50.7,30.02,NNE,26,8.1,8.1,55,0.00,BKN,,0.00,886.0,WeatherDisplay:10.37,2013-09-22 17:43:00,
2013-09-22 12:48:00,67.8,50.5,30.02,NW,315,8.1,8.1,54,0.00,SCT,,0.00,874.0,WeatherDisplay:10.37,2013-09-22 17:48:00,
2013-09-22 12:53:00,67.8,49.5,30.01,ESE,113,5.8,5.8,52,0.00,SCT,,0.00,900.0,WeatherDisplay:10.37,2013-09-22 17:53:00,
2013-09-22 12:58:00,67.6,49.3,30.01,SE,129,3.5,3.5,52,0.00,SCT,,0.00,308.0,WeatherDisplay:10.37,2013-09-22 17:58:00,
2013-09-22 13:03:00,67.4,49.2,30.01,East,86,6.0,6.0,52,0.00,BKN,,0.00,292.0,WeatherDisplay:10.37,2013-09-22 18:03:00,
2013-09-22 13:08:00,67.5,48.7,30.01,NE,46,8.1,8.1,51,0.00,BKN,,0.00,248.0,WeatherDisplay:10.37,2013-09-22 18:08:00,
2013-09-22 13:13:00,66.7,48.0,30.01,NNE,30,5.8,5.8,51,0.00,BKN,,0.00,199.0,WeatherDisplay:10.37,2013-09-22 18:13:00,
2013-09-22 13:18:00,65.9,47.8,30.01,NNE,19,4.6,4.6,52,0.00,BKN,,0.00,135.0,WeatherDisplay:10.37,2013-09-22 18:18:00,
2013-09-22 13:23:00,66.2,49.1,30.00,North,355,8.1,8.1,54,0.00,BKN,,0.00,780.0,WeatherDisplay:10.37,2013-09-22 18:23:00,
2013-09-22 13:28:00,66.7,49.5,30.00,North,351,2.3,2.3,54,0.00,BKN,,0.00,791.0,WeatherDisplay:10.37,2013-09-22 18:28:00,
2013-09-22 13:33:00,67.4,49.2,30.00,NE,38,3.5,0.0,52,0.00,SCT,,0.00,775.0,WeatherDisplay:10.37,2013-09-22 18:33:00,
2013-09-22 13:38:00,68.1,48.2,30.00,NE,40,8.1,8.1,49,0.00,SCT,,0.00,759.0,WeatherDisplay:10.37,2013-09-22 18:38:00,
2013-09-22 13:43:00,68.1,47.7,30.00,ENE,60,8.1,8.1,48,0.00,SCT,,0.00,775.0,WeatherDisplay:10.37,2013-09-22 18:43:00,
2013-09-22 13:48:00,68.1,48.2,29.99,NE,45,8.0,8.0,49,0.00,SCT,,0.00,728.0,WeatherDisplay:10.37,2013-09-22 18:48:00,
2013-09-22 13:53:00,68.5,49.7,29.99,NE,48,8.1,8.1,51,0.00,SCT,,0.00,717.0,WeatherDisplay:10.37,2013-09-22 18:53:00,
2013-09-22 13:58:00,68.8,48.9,29.99,NE,42,9.2,9.2,49,0.00,SCT,,0.00,752.0,WeatherDisplay:10.37,2013-09-22 18:58:00,
2013-09-22 14:03:00,68.7,49.3,29.99,NNW,338,10.4,10.4,50,0.00,SCT,,0.00,666.0,WeatherDisplay:10.37,2013-09-22 19:03:00,
2013-09-22 14:08:00,68.4,50.1,29.99,North,360,6.9,6.9,52,0.00,SCT,,0.00,696.0,WeatherDisplay:10.37,2013-09-22 19:08:00,
2013-09-22 14:13:00,68.8,49.9,29.99,North,349,6.9,6.9,51,0.00,SCT,,0.00,691.0,WeatherDisplay:10.37,2013-09-22 19:13:00,
2013-09-22 14:19:00,68.4,49.0,29.99,WSW,241,4.6,4.6,50,0.00,SCT,,0.00,684.0,WeatherDisplay:10.37,2013-09-22 19:19:00,
2013-09-22 14:24:00,68.5,49.7,29.99,NNW,341,10.4,10.4,51,0.00,SCT,,0.00,675.0,WeatherDisplay:10.37,2013-09-22 19:24:00,
2013-09-22 14:29:00,68.5,49.1,29.99,NE,44,9.2,9.2,50,0.00,SCT,,0.00,666.0,WeatherDisplay:10.37,2013-09-22 19:29:00,
2013-09-22 14:34:00,68.8,50.5,29.99,NNW,334,9.2,9.2,52,0.00,SCT,,0.00,657.0,WeatherDisplay:10.37,2013-09-22 19:34:00,
2013-09-22 14:39:00,68.7,49.3,29.98,NW,318,8.1,8.1,50,0.00,SCT,,0.00,645.0,WeatherDisplay:10.37,2013-09-22 19:39:00,
2013-09-22 14:44:00,69.0,49.6,29.98,NNW,346,10.4,10.4,50,0.00,SCT,,0.00,635.0,WeatherDisplay:10.37,2013-09-22 19:44:00,
2013-09-22 14:49:00,68.9,48.9,29.98,NNE,21,10.4,10.4,49,0.00,CLR,,0.00,629.0,WeatherDisplay:10.37,2013-09-22 19:49:00,
2013-09-22 14:54:00,68.8,48.3,29.98,North,355,5.8,5.8,48,0.00,CLR,,0.00,617.0,WeatherDisplay:10.37,2013-09-22 19:54:00,
2013-09-22 14:59:00,69.0,49.6,29.98,NE,48,3.5,3.5,50,0.00,CLR,,0.00,610.0,WeatherDisplay:10.37,2013-09-22 19:59:00,
2013-09-22 15:04:00,69.4,47.7,29.98,North,360,3.5,3.5,46,0.00,CLR,,0.00,599.0,WeatherDisplay:10.37,2013-09-22 20:04:00,
2013-09-22 15:09:00,69.4,48.9,29.98,ESE,118,1.1,1.1,48,0.00,CLR,,0.00,584.0,WeatherDisplay:10.37,2013-09-22 20:09:00,
2013-09-22 15:14:00,69.4,48.9,29.98,North,360,6.9,6.9,48,0.00,CLR,,0.00,578.0,WeatherDisplay:10.37,2013-09-22 20:14:00,
2013-09-22 15:19:00,69.3,47.6,29.98,NE,48,3.5,3.5,46,0.00,CLR,,0.00,566.0,WeatherDisplay:10.37,2013-09-22 20:19:00,
2013-09-22 15:24:00,69.6,47.9,29.98,NE,53,10.4,10.4,46,0.00,CLR,,0.00,554.0,WeatherDisplay:10.37,2013-09-22 20:24:00,
2013-09-22 15:29:00,69.7,48.6,29.98,NNE,26,9.2,9.2,47,0.00,CLR,,0.00,543.0,WeatherDisplay:10.37,2013-09-22 20:29:00,
2013-09-22 15:34:00,69.7,48.6,29.98,NNE,30,3.5,3.5,47,0.00,CLR,,0.00,520.0,WeatherDisplay:10.37,2013-09-22 20:34:00,
2013-09-22 15:39:00,69.9,50.4,29.98,NNW,336,5.8,5.8,50,0.00,CLR,,0.00,519.0,WeatherDisplay:10.37,2013-09-22 20:39:00,
2013-09-22 15:44:00,69.6,48.5,29.98,NE,46,11.5,11.5,47,0.00,CLR,,0.00,503.0,WeatherDisplay:10.37,2013-09-22 20:44:00,
2013-09-22 15:49:00,69.6,49.0,29.98,NE,42,6.9,6.9,48,0.00,CLR,,0.00,490.0,WeatherDisplay:10.37,2013-09-22 20:49:00,
2013-09-22 15:54:00,69.4,48.9,29.98,NNE,13,5.8,5.8,48,0.00,CLR,,0.00,475.0,WeatherDisplay:10.37,2013-09-22 20:54:00,
2013-09-22 15:59:00,69.2,48.7,29.98,NE,56,6.9,6.9,48,0.00,CLR,,0.00,457.0,WeatherDisplay:10.37,2013-09-22 20:59:00,
2013-09-22 16:04:00,69.1,49.1,29.98,NNW,340,9.2,9.2,49,0.00,CLR,,0.00,446.0,WeatherDisplay:10.37,2013-09-22 21:04:00,
2013-09-22 16:09:00,69.0,50.1,29.98,NE,38,9.2,9.2,51,0.00,CLR,,0.00,431.0,WeatherDisplay:10.37,2013-09-22 21:09:00,
2013-09-22 16:14:00,69.0,49.0,29.98,NNE,15,9.2,9.2,49,0.00,CLR,,0.00,417.0,WeatherDisplay:10.37,2013-09-22 21:14:00,
2013-09-22 16:19:00,68.8,48.9,29.98,NE,46,8.1,8.1,49,0.00,CLR,,0.00,403.0,WeatherDisplay:10.37,2013-09-22 21:19:00,
2013-09-22 16:24:00,68.7,49.3,29.98,NNE,22,9.2,9.2,50,0.00,CLR,,0.00,388.0,WeatherDisplay:10.37,2013-09-22 21:24:00,
2013-09-22 16:29:00,68.7,49.3,29.97,NNE,30,9.0,9.0,50,0.00,CLR,,0.00,376.0,WeatherDisplay:10.37,2013-09-22 21:29:00,
2013-09-22 16:34:00,68.8,49.4,29.97,NNE,16,9.2,9.2,50,0.00,CLR,,0.00,360.0,WeatherDisplay:10.37,2013-09-22 21:34:00,
2013-09-22 16:39:00,68.5,49.1,29.97,North,10,9.2,9.2,50,0.00,CLR,,0.00,345.0,WeatherDisplay:10.37,2013-09-22 21:39:00,
2013-09-22 16:44:00,68.3,48.9,29.97,NNE,30,6.9,6.9,50,0.00,CLR,,0.00,336.0,WeatherDisplay:10.37,2013-09-22 21:44:00,
2013-09-22 16:49:00,68.4,49.0,29.98,ENE,64,12.7,12.7,50,0.00,CLR,,0.00,320.0,WeatherDisplay:10.37,2013-09-22 21:49:00,
2013-09-22 16:54:00,68.0,49.2,29.98,NNE,28,11.5,11.5,51,0.00,CLR,,0.00,302.0,WeatherDisplay:10.37,2013-09-22 21:54:00,
2013-09-22 16:59:00,67.8,49.0,29.98,ENE,61,10.4,10.4,51,0.00,CLR,,0.00,287.0,WeatherDisplay:10.37,2013-09-22 21:59:00,
2013-09-22 17:04:00,67.6,48.3,29.98,ENE,71,9.2,9.2,50,0.00,CLR,,0.00,274.0,WeatherDisplay:10.37,2013-09-22 22:04:00,
2013-09-22 17:09:00,67.3,49.1,29.98,NNE,28,12.0,12.0,52,0.00,CLR,,0.00,260.0,WeatherDisplay:10.37,2013-09-22 22:09:00,
2013-09-22 17:14:00,66.8,49.1,29.98,NE,40,10.4,10.4,53,0.00,CLR,,0.00,243.0,WeatherDisplay:10.37,2013-09-22 22:14:00,
2013-09-22 17:20:00,66.5,48.8,29.98,NNE,33,11.5,11.5,53,0.00,CLR,,0.00,223.0,WeatherDisplay:10.37,2013-09-22 22:20:00,
2013-09-22 17:25:00,66.1,49.0,29.98,NE,49,10.4,10.4,54,0.00,CLR,,0.00,204.0,WeatherDisplay:10.37,2013-09-22 22:25:00,
2013-09-22 17:30:00,65.8,48.7,29.98,NE,56,9.2,9.2,54,0.00,CLR,,0.00,188.0,WeatherDisplay:10.37,2013-09-22 22:30:00,
2013-09-22 17:35:00,65.4,48.8,29.98,NE,53,10.4,10.4,55,0.00,CLR,,0.00,163.0,WeatherDisplay:10.37,2013-09-22 22:35:00,
2013-09-22 17:40:00,65.1,49.0,29.99,NNE,30,10.4,10.4,56,0.00,CLR,,0.00,144.0,WeatherDisplay:10.37,2013-09-22 22:40:00,
2013-09-22 17:45:00,64.7,48.6,29.99,NE,50,11.5,11.5,56,0.00,CLR,,0.00,128.0,WeatherDisplay:10.37,2013-09-22 22:45:00,
2013-09-22 17:50:00,64.2,49.1,29.99,NNE,30,9.2,9.2,58,0.00,CLR,,0.00,109.0,WeatherDisplay:10.37,2013-09-22 22:50:00,
2013-09-22 17:55:00,63.7,49.1,29.99,NNE,19,11.0,11.0,59,0.00,CLR,,0.00,93.0,WeatherDisplay:10.37,2013-09-22 22:55:00,
2013-09-22 18:00:00,63.0,48.9,29.99,NNE,20,11.5,11.5,60,0.00,CLR,,0.00,23.0,WeatherDisplay:10.37,2013-09-22 23:00:00,
2013-09-22 18:05:00,62.5,48.9,29.99,NE,47,10.4,10.4,61,0.00,CLR,,0.00,21.0,WeatherDisplay:10.37,2013-09-22 23:05:00,
2013-09-22 18:10:00,62.1,49.4,29.99,NNE,32,7.0,7.6,63,0.00,CLR,,0.00,19.0,WeatherDisplay:10.37,2013-09-22 23:10:00,
2013-09-22 18:15:00,61.6,48.9,29.99,NE,56,8.1,8.1,63,0.00,CLR,,0.00,18.0,WeatherDisplay:10.37,2013-09-22 23:15:00,
2013-09-22 18:20:00,61.2,48.9,29.99,NNE,22,11.5,11.5,64,0.00,CLR,,0.00,16.0,WeatherDisplay:10.37,2013-09-22 23:20:00,
2013-09-22 18:25:00,60.7,48.9,29.99,NE,35,10.0,10.0,65,0.00,CLR,,0.00,14.0,WeatherDisplay:10.37,2013-09-22 23:25:00,
2013-09-22 18:30:00,60.3,48.9,29.99,ENE,65,10.4,10.4,66,0.00,CLR,,0.00,12.0,WeatherDisplay:10.37,2013-09-22 23:30:00,
2013-09-22 18:35:00,59.8,48.8,29.99,NE,53,9.2,9.2,67,0.00,CLR,,0.00,9.0,WeatherDisplay:10.37,2013-09-22 23:35:00,
2013-09-22 18:40:00,59.3,48.7,29.99,NE,51,5.8,5.8,68,0.00,CLR,,0.00,7.0,WeatherDisplay:10.37,2013-09-22 23:40:00,
2013-09-22 18:45:00,58.7,48.6,30.00,NE,37,6.9,6.9,69,0.00,CLR,,0.00,5.0,WeatherDisplay:10.37,2013-09-22 23:45:00,
2013-09-22 18:50:00,58.1,48.4,30.00,ENE,57,5.8,5.8,70,0.00,CLR,,0.00,0.0,WeatherDisplay:10.37,2013-09-22 23:50:00,
2013-09-22 18:55:00,57.8,48.5,30.00,NE,44,9.2,9.2,71,0.00,CLR,,0.00,0.0,WeatherDisplay:10.37,2013-09-22 23:55:00,
2013-09-22 19:00:00,57.4,48.1,30.00,NE,44,8.1,8.1,71,0.00,CLR,,0.00,0.0,WeatherDisplay:10.37,2013-09-23 00:00:00,
2013-09-22 19:05:00,57.0,48.1,30.00,NE,52,8.0,8.0,72,0.00,CLR,,0.00,0.0,WeatherDisplay:10.37,2013-09-23 00:05:00,
2013-09-22 19:10:00,56.6,48.0,30.00,NNE,25,5.0,5.0,73,0.00,CLR,,0.00,0.0,WeatherDisplay:10.37,2013-09-23 00:10:00,
2013-09-22 19:15:00,56.2,48.0,30.00,ENE,61,7.0,7.0,74,0.00,CLR,,0.00,0.0,WeatherDisplay:10.37,2013-09-23 00:15:00,
2013-09-22 19:20:00,55.8,48.0,30.00,NE,46,5.8,5.8,75,0.00,CLR,,0.00,0.0,WeatherDisplay:10.37,2013-09-23 00:20:00,
2013-09-22 19:25:00,55.4,48.0,30.00,NE,52,3.5,3.5,76,0.00,CLR,,0.00,0.0,WeatherDisplay:10.37,2013-09-23 00:25:00,
2013-09-22 19:30:00,55.0,47.6,30.01,NE,53,4.6,4.6,76,0.00,CLR,,0.00,0.0,WeatherDisplay:10.37,2013-09-23 00:30:00,
2013-09-22 19:35:00,54.6,47.5,30.01,NNE,29,4.6,4.6,77,0.00,CLR,,0.00,0.0,WeatherDisplay:10.37,2013-09-23 00:35:00,
2013-09-22 19:40:00,54.2,47.5,30.01,NE,39,4.6,4.6,78,0.00,CLR,,0.00,0.0,WeatherDisplay:10.37,2013-09-23 00:40:00,
2013-09-22 19:45:00,54.0,47.6,30.01,ENE,57,3.5,3.5,79,0.00,CLR,,0.00,0.0,WeatherDisplay:10.37,2013-09-23 00:45:00,
2013-09-22 19:51:00,53.7,47.3,30.01,NE,51,4.6,4.6,79,0.00,CLR,,0.00,0.0,WeatherDisplay:10.37,2013-09-23 00:51:00,
2013-09-22 19:56:00,53.4,47.4,30.02,NE,53,3.5,3.5,80,0.00,CLR,,0.00,0.0,WeatherDisplay:10.37,2013-09-23 00:56:00,
2013-09-22 20:01:00,53.2,47.2,30.02,NE,38,4.6,4.6,80,0.00,CLR,,0.00,0.0,WeatherDisplay:10.37,2013-09-23 01:01:00,
2013-09-22 20:06:00,53.0,47.3,30.02,NE,44,3.5,3.5,81,0.00,CLR,,0.00,0.0,WeatherDisplay:10.37,2013-09-23 01:06:00,
2013-09-22 20:11:00,52.8,47.1,30.02,ENE,60,4.0,4.0,81,0.00,CLR,,0.00,0.0,WeatherDisplay:10.37,2013-09-23 01:11:00,
2013-09-22 20:16:00,52.5,47.2,30.02,ENE,57,4.6,4.6,82,0.00,CLR,,0.00,0.0,WeatherDisplay:10.37,2013-09-23 01:16:00,
2013-09-22 20:21:00,52.3,47.0,30.02,NE,41,3.5,3.5,82,0.00,CLR,,0.00,0.0,WeatherDisplay:10.37,2013-09-23 01:21:00,
2013-09-22 20:26:00,52.1,46.8,30.02,NE,49,4.0,4.0,82,0.00,CLR,,0.00,0.0,WeatherDisplay:10.37,2013-09-23 01:26:00,
2013-09-22 20:31:00,51.8,46.8,30.02,NE,51,3.5,3.5,83,0.00,CLR,,0.00,0.0,WeatherDisplay:10.37,2013-09-23 01:31:00,
2013-09-22 20:36:00,51.6,46.6,30.02,NE,51,3.5,3.5,83,0.00,CLR,,0.00,0.0,WeatherDisplay:10.37,2013-09-23 01:36:00,
2013-09-22 20:41:00,51.4,46.4,30.02,NE,42,3.5,3.5,83,0.00,CLR,,0.00,0.0,WeatherDisplay:10.37,2013-09-23 01:41:00,
2013-09-22 20:46:00,51.1,46.4,30.02,NE,53,3.5,3.5,84,0.00,CLR,,0.00,0.0,WeatherDisplay:10.37,2013-09-23 01:46:00,
2013-09-22 20:51:00,50.8,46.1,30.02,NE,51,3.5,3.5,84,0.00,CLR,,0.00,0.0,WeatherDisplay:10.37,2013-09-23 01:51:00,
2013-09-22 20:56:00,50.6,46.3,30.03,ENE,60,3.5,3.5,85,0.00,CLR,,0.00,0.0,WeatherDisplay:10.37,2013-09-23 01:56:00,
2013-09-22 21:01:00,50.5,46.2,30.02,ENE,65,2.3,2.3,85,0.00,CLR,,0.00,0.0,WeatherDisplay:10.37,2013-09-23 02:01:00,
2013-09-22 21:06:00,50.4,46.1,30.02,ENE,65,2.3,2.3,85,0.00,CLR,,0.00,0.0,WeatherDisplay:10.37,2013-09-23 02:06:00,
2013-09-22 21:11:00,50.3,46.0,30.03,ENE,69,2.3,2.3,85,0.00,CLR,,0.00,0.0,WeatherDisplay:10.37,2013-09-23 02:11:00,
2013-09-22 21:16:00,50.0,46.0,30.02,NE,52,3.5,3.5,86,0.00,CLR,,0.00,0.0,WeatherDisplay:10.37,2013-09-23 02:16:00,
2013-09-22 21:21:00,49.8,45.8,30.03,NE,48,3.5,3.5,86,0.00,CLR,,0.00,0.0,WeatherDisplay:10.37,2013-09-23 02:21:00,
2013-09-22 21:26:00,49.8,46.1,30.03,NE,50,3.5,3.5,87,0.00,CLR,,0.00,0.0,WeatherDisplay:10.37,2013-09-23 02:26:00,
2013-09-22 21:31:00,49.8,46.1,30.03,ENE,69,4.6,4.6,87,0.00,CLR,,0.00,0.0,WeatherDisplay:10.37,2013-09-23 02:31:00,
2013-09-22 21:36:00,49.7,46.0,30.03,ENE,59,3.5,3.5,87,0.00,CLR,,0.00,0.0,WeatherDisplay:10.37,2013-09-23 02:36:00,
2013-09-22 21:41:00,49.6,45.6,30.03,NE,36,3.5,3.5,86,0.00,CLR,,0.00,0.0,WeatherDisplay:10.37,2013-09-23 02:41:00,
2013-09-22 21:46:00,49.6,45.9,30.03,NE,53,5.0,5.0,87,0.00,CLR,,0.00,0.0,WeatherDisplay:10.37,2013-09-23 02:46:00,
2013-09-22 21:52:00,49.6,45.9,30.03,ENE,69,6.9,6.9,87,0.00,CLR,,0.00,0.0,WeatherDisplay:10.37,2013-09-23 02:52:00,
2013-09-22 21:57:00,49.6,45.9,30.03,East,81,4.6,4.6,87,0.00,CLR,,0.00,0.0,WeatherDisplay:10.37,2013-09-23 02:57:00,
2013-09-22 22:02:00,49.5,45.8,30.03,ENE,60,5.0,5.0,87,0.00,CLR,,0.00,0.0,WeatherDisplay:10.37,2013-09-23 03:02:00,
2013-09-22 22:07:00,49.4,45.7,30.03,ENE,72,3.5,3.5,87,0.00,CLR,,0.00,0.0,WeatherDisplay:10.37,2013-09-23 03:07:00,
2013-09-22 22:12:00,49.2,45.5,30.03,ENE,69,3.5,3.5,87,0.00,CLR,,0.00,0.0,WeatherDisplay:10.37,2013-09-23 03:12:00,
2013-09-22 22:17:00,49.1,45.7,30.03,ENE,71,3.5,3.5,88,0.00,CLR,,0.00,0.0,WeatherDisplay:10.37,2013-09-23 03:17:00,
2013-09-22 22:22:00,48.9,45.5,30.03,ENE,69,3.5,3.5,88,0.00,CLR,,0.00,0.0,WeatherDisplay:10.37,2013-09-23 03:22:00,
2013-09-22 22:27:00,48.8,45.4,30.03,ENE,65,4.6,4.6,88,0.00,CLR,,0.00,0.0,WeatherDisplay:10.37,2013-09-23 03:27:00,
2013-09-22 22:32:00,48.8,45.4,30.04,ENE,68,3.5,3.5,88,0.00,CLR,,0.00,0.0,WeatherDisplay:10.37,2013-09-23 03:32:00,
2013-09-22 22:37:00,48.7,45.3,30.04,East,79,2.3,2.3,88,0.00,CLR,,0.00,0.0,WeatherDisplay:10.37,2013-09-23 03:37:00,
2013-09-22 22:42:00,48.6,45.2,30.04,ENE,59,3.5,3.5,88,0.00,CLR,,0.00,0.0,WeatherDisplay:10.37,2013-09-23 03:42:00,
2013-09-22 22:47:00,48.4,45.0,30.04,ENE,71,3.5,3.5,88,0.00,CLR,,0.00,0.0,WeatherDisplay:10.37,2013-09-23 03:47:00,
2013-09-22 22:52:00,48.3,45.2,30.04,ENE,71,2.3,2.3,89,0.00,CLR,,0.00,0.0,WeatherDisplay:10.37,2013-09-23 03:52:00,
2013-09-22 22:57:00,48.1,44.7,30.04,ENE,71,2.3,2.3,88,0.00,CLR,,0.00,0.0,WeatherDisplay:10.37,2013-09-23 03:57:00,
2013-09-22 23:01:00,48.0,44.9,30.04,ENE,69,3.5,3.5,89,0.00,CLR,,0.00,0.0,WeatherDisplay:10.37,2013-09-23 04:01:00,
2013-09-22 23:06:00,48.0,44.9,30.04,ENE,66,2.3,2.3,89,0.00,CLR,,0.00,0.0,WeatherDisplay:10.37,2013-09-23 04:06:00,
2013-09-22 23:11:00,47.8,44.7,30.04,ENE,66,3.5,3.5,89,0.00,CLR,,0.00,0.0,WeatherDisplay:10.37,2013-09-23 04:11:00,
2013-09-22 23:16:00,47.7,44.6,30.04,ENE,66,2.3,2.3,89,0.00,CLR,,0.00,0.0,WeatherDisplay:10.37,2013-09-23 04:16:00,
2013-09-22 23:21:00,47.5,44.4,30.04,ENE,66,1.1,1.1,89,0.00,CLR,,0.00,0.0,WeatherDisplay:10.37,2013-09-23 04:21:00,
2013-09-22 23:26:00,47.4,44.6,30.04,ENE,66,2.3,2.3,90,0.00,CLR,,0.00,0.0,WeatherDisplay:10.37,2013-09-23 04:26:00,
2013-09-22 23:31:00,47.1,44.0,30.05,ENE,65,2.3,2.3,89,0.00,CLR,,0.00,0.0,WeatherDisplay:10.37,2013-09-23 04:31:00,
2013-09-22 23:36:00,46.9,44.1,30.05,ENE,73,3.5,3.5,90,0.00,CLR,,0.00,0.0,WeatherDisplay:10.37,2013-09-23 04:36:00,
2013-09-22 23:41:00,46.6,43.8,30.05,East,80,2.3,2.3,90,0.00,CLR,,0.00,0.0,WeatherDisplay:10.37,2013-09-23 04:41:00,
2013-09-22 23:46:00,46.6,44.1,30.05,East,82,4.6,4.6,91,0.00,CLR,,0.00,0.0,WeatherDisplay:10.37,2013-09-23 04:46:00,
2013-09-22 23:51:00,46.9,44.7,30.05,East,79,3.5,3.5,92,0.00,CLR,,0.00,0.0,WeatherDisplay:10.37,2013-09-23 04:51:00,
2013-09-22 23:56:00,47.0,44.8,30.05,ENE,78,4.6,4.6,92,0.00,CLR,,0.00,0.0,WeatherDisplay:10.37,2013-09-23 04:56:00,